KG6SIB Weather Reports


Display with metric or nautical units.
time (UTC)temp
F
wind
direction
speed
MPH
gust
MPH
rain 1hr
in
rain 24hr
in
rain mn
in
humidity
%
barometer
mb
20170921160132 54 229 1.0 4.0 0.00 0.00 0.00 84 1011.9
20170921155633 53 181 1.0 4.0 0.00 0.00 0.00 84 1012.1
20170921155132 53 194 2.0 4.0 0.00 0.00 0.00 85 1012.1
20170921154633 53 173 2.0 3.0 0.00 0.00 0.00 86 1012.1
20170921154132 53 123 0.0 4.0 0.00 0.00 0.00 86 1012.1
20170921153632 53 124 0.0 4.0 0.00 0.00 0.00 86 1012.1
20170921153131 52 177 4.0 4.0 0.00 0.00 0.00 87 1011.8
20170921152632 52 214 3.0 3.0 0.00 0.00 0.00 87 1011.8
20170921152131 52 211 1.0 4.0 0.00 0.00 0.00 87 1011.8
20170921151631 52 250 3.0 4.0 0.00 0.00 0.00 87 1011.7
20170921150632 52 116 1.0 2.0 0.00 0.00 0.00 88 1011.5
20170921150202 52 131 1.0 3.0 0.00 0.00 0.00 88 1011.5
20170921145631 51 239 2.0 3.0 0.00 0.00 0.00 88 1011.5
20170921145135 51 188 1.0 3.0 0.00 0.00 0.00 88 1011.5
20170921144631 51 233 2.0 3.0 0.00 0.00 0.00 89 1011.5
20170921144132 51 114 0.0 2.0 0.00 0.00 0.00 88 1011.5
20170921143631 51 81 0.0 1.0 0.00 0.00 0.00 89 1011.5
20170921143134 50 77 0.0 1.0 0.00 0.00 0.00 89 1011.3
20170921142631 50 77 0.0 0.0 0.00 0.00 0.00 89 1011.3
20170921142131 50 77 0.0 0.0 0.00 0.00 0.00 89 1011.3
20170921141631 50 77 0.0 1.0 0.00 0.00 0.00 89 1011.3
20170921141131 49 77 0.0 1.0 0.00 0.00 0.00 89 1011.2
20170921140631 49 77 0.0 3.0 0.00 0.00 0.00 89 1011.2
20170921140201 49 77 1.0 4.0 0.00 0.00 0.00 90 1011.1
20170921135630 49 54 2.0 4.0 0.00 0.00 0.00 90 1011.7
20170921135130 48 51 2.0 4.0 0.00 0.00 0.00 91 1011.4
20170921134630 47 44 1.0 4.0 0.00 0.00 0.00 91 1011.5
20170921134130 47 77 0.0 5.0 0.00 0.00 0.00 90 1011.5
20170921133629 46 61 3.0 6.0 0.00 0.00 0.00 91 1011.2
20170921133130 45 34 3.0 6.0 0.00 0.00 0.00 91 1011.2
20170921132629 45 53 3.0 4.0 0.00 0.00 0.00 90 1011.2
20170921132129 44 39 3.0 6.0 0.00 0.00 0.00 90 1011.0
20170921131629 44 54 4.0 6.0 0.00 0.00 0.00 91 1011.1
20170921131129 43 51 3.0 6.0 0.00 0.00 0.00 91 1011.0
20170921130630 43 41 3.0 6.0 0.00 0.00 0.00 90 1011.0
20170921130158 43 52 3.0 6.0 0.00 0.00 0.00 90 1010.9
20170921125658 42 31 5.0 5.0 0.00 0.00 0.00 90 1011.3
20170921125128 42 48 4.0 5.0 0.00 0.00 0.00 89 1011.2
20170921124629 42 47 3.0 5.0 0.00 0.00 0.00 89 1011.1
20170921124159 42 56 3.0 6.0 0.00 0.00 0.00 89 1011.0
20170921123659 42 34 5.0 7.0 0.00 0.00 0.00 89 1010.9
20170921123158 42 56 5.0 7.0 0.00 0.00 0.00 88 1010.9
20170921122657 42 30 5.0 6.0 0.00 0.00 0.00 88 1010.8
20170921122157 42 43 3.0 6.0 0.00 0.00 0.00 88 1010.8
20170921121657 42 57 4.0 6.0 0.00 0.00 0.00 87 1010.7
20170921121158 42 37 5.0 6.0 0.00 0.00 0.00 87 1010.7
20170921120657 42 65 4.0 5.0 0.00 0.00 0.00 86 1010.7
20170921120156 42 36 4.0 6.0 0.00 0.00 0.00 86 1010.6
20170921115658 42 34 3.0 6.0 0.00 0.00 0.00 86 1010.9
20170921115158 42 35 5.0 6.0 0.00 0.00 0.00 86 1010.8
20170921114656 42 43 4.0 5.0 0.00 0.00 0.00 86 1010.7
20170921114158 42 48 5.0 5.0 0.00 0.00 0.00 85 1010.8
20170921113657 42 51 4.0 5.0 0.00 0.00 0.00 85 1010.8
20170921113157 42 42 4.0 5.0 0.00 0.00 0.00 84 1010.8
20170921112656 43 36 4.0 6.0 0.00 0.00 0.00 85 1010.9
20170921112156 43 42 4.0 6.0 0.00 0.00 0.00 84 1010.9
20170921111655 43 52 4.0 6.0 0.00 0.00 0.00 84 1010.9
20170921110638 44 46 3.0 5.0 0.00 0.00 0.00 82 1010.9
20170921110137 44 41 2.0 5.0 0.00 0.00 0.00 83 1011.0
20170921105638 44 34 5.0 5.0 0.00 0.00 0.00 84 1011.1
20170921105137 44 39 4.0 5.0 0.00 0.00 0.00 83 1011.1
20170921104637 44 41 2.0 5.0 0.00 0.00 0.00 82 1011.1
20170921104136 45 47 3.0 5.0 0.00 0.00 0.00 82 1011.1
20170921103638 45 41 3.0 4.0 0.00 0.00 0.00 82 1011.2
20170921103136 45 32 3.0 4.0 0.00 0.00 0.00 81 1011.2
20170921102636 45 68 3.0 4.0 0.00 0.00 0.00 81 1011.2
20170921102136 45 44 3.0 6.0 0.00 0.00 0.00 83 1011.2
20170921101636 44 49 4.0 6.0 0.00 0.00 0.00 81 1011.2
20170921101137 44 41 5.0 5.0 0.00 0.00 0.00 79 1011.3
20170921100637 45 37 4.0 4.0 0.00 0.00 0.00 77 1011.3
20170921100136 46 56 2.0 2.0 0.00 0.00 0.00 78 1011.5
20170921095635 48 60 2.0 2.0 0.00 0.00 0.00 79 1011.6
20170921095135 47 49 0.0 1.0 0.00 0.00 0.00 75 1011.3
20170921094635 48 49 0.0 1.0 0.00 0.00 0.00 74 1011.4
20170921094135 48 47 0.0 1.0 0.00 0.00 0.00 72 1011.5
20170921093635 48 48 0.0 2.0 0.00 0.00 0.00 72 1011.4
20170921093135 48 50 1.0 3.0 0.00 0.00 0.00 73 1011.3
20170921092634 47 47 1.0 4.0 0.00 0.00 0.00 75 1011.2
20170921092135 46 46 0.0 4.0 0.00 0.00 0.00 76 1011.3
20170921091634 46 36 4.0 4.0 0.00 0.00 0.00 78 1011.3
20170921091134 45 32 3.0 4.0 0.00 0.00 0.00 79 1011.2
20170921090634 44 37 2.0 5.0 0.00 0.00 0.00 82 1011.3
20170921090135 44 40 3.0 5.0 0.00 0.00 0.00 81 1011.4
20170921085633 44 42 4.0 5.0 0.00 0.00 0.00 82 1011.4
20170921085133 44 33 4.0 5.0 0.00 0.00 0.00 83 1011.4
20170921084634 44 36 3.0 5.0 0.00 0.00 0.00 84 1011.5
20170921084133 44 46 3.0 5.0 0.00 0.00 0.00 84 1011.5
20170921083633 44 53 3.0 5.0 0.00 0.00 0.00 84 1011.6
20170921083133 44 37 3.0 5.0 0.00 0.00 0.00 84 1011.7
20170921082633 45 39 3.0 4.0 0.00 0.00 0.00 85 1011.7
20170921082133 45 47 2.0 4.0 0.00 0.00 0.00 86 1011.7
20170921081632 46 39 2.0 3.0 0.00 0.00 0.00 87 1012.0
20170921081132 46 28 2.0 3.0 0.00 0.00 0.00 88 1011.9
20170921080632 47 53 1.0 2.0 0.00 0.00 0.00 88 1012.0
20170921080204 47 40 1.0 2.0 0.00 0.00 0.00 88 1012.0
20170921075632 48 37 1.0 4.0 0.00 0.00 0.00 89 1012.2
20170921075132 48 32 1.0 5.0 0.00 0.00 0.00 90 1012.2
20170921074632 48 46 1.0 5.0 0.00 0.00 0.00 89 1012.1
20170921074133 48 31 3.0 4.0 0.00 0.00 0.00 88 1012.3
20170921073631 48 53 2.0 3.0 0.00 0.00 0.00 87 1012.3
20170921073131 49 102 0.0 0.0 0.00 0.00 0.00 86 1012.5
20170921072633 49 102 0.0 0.0 0.00 0.00 0.00 85 1012.5
20170921072132 49 102 0.0 0.0 0.00 0.00 0.00 83 1012.5
20170921071631 49 102 0.0 0.0 0.00 0.00 0.00 77 1012.4
20170921070643 49 89 0.0 0.0 0.00 0.00 0.00 65 1012.0
20170921070143 50 89 0.0 0.0 0.00 0.00 0.00 66 1012.0
20170921065642 50 89 0.0 1.0 0.00 0.00 0.00 64 1012.1
20170921065143 51 90 0.0 2.0 0.00 0.00 0.00 63 1012.0
20170921064643 51 89 0.0 4.0 0.00 0.00 0.00 62 1012.1
20170921064142 51 42 1.0 4.0 0.00 0.00 0.00 61 1012.0
20170921063643 51 34 3.0 4.0 0.00 0.00 0.00 61 1012.0
20170921063142 51 46 2.0 4.0 0.00 0.00 0.00 61 1012.0
20170921062644 51 75 1.0 4.0 0.00 0.00 0.00 61 1012.0
20170921062142 52 40 2.0 4.0 0.00 0.00 0.00 60 1012.2
20170921061643 52 34 2.0 4.0 0.00 0.00 0.00 60 1012.1
20170921061142 52 45 2.0 4.0 0.00 0.00 0.00 60 1012.1
20170921060643 52 56 3.0 4.0 0.00 0.00 0.00 60 1012.1
20170921060143 52 98 0.0 4.0 0.00 0.00 0.00 60 1012.1
20170921055642 52 40 3.0 4.0 0.00 0.00 0.00 60 1012.0
20170921055141 52 80 0.0 4.0 0.00 0.00 0.00 60 1012.0
20170921054642 52 66 3.0 6.0 0.00 0.00 0.00 61 1011.9
20170921054140 52 57 2.0 6.0 0.00 0.00 0.00 61 1011.9
20170921053641 52 46 4.0 7.0 0.00 0.00 0.00 61 1011.9
20170921053140 53 53 4.0 7.0 0.00 0.00 0.00 60 1011.9
20170921052640 52 21 4.0 6.0 0.00 0.00 0.00 61 1012.0
20170921052141 53 59 4.0 6.0 0.00 0.00 0.00 60 1012.0
20170921051641 52 66 3.0 6.0 0.00 0.00 0.00 60 1012.0
20170921051140 52 55 4.0 6.0 0.00 0.00 0.00 60 1012.0
20170921050640 53 58 4.0 7.0 0.00 0.00 0.00 59 1011.9
20170921050140 53 43 5.0 7.0 0.00 0.00 0.00 58 1011.9
20170921045640 53 63 4.0 6.0 0.00 0.00 0.00 58 1012.0
20170921045139 53 55 5.0 7.0 0.00 0.00 0.00 58 1012.0
20170921044639 53 53 3.0 7.0 0.00 0.00 0.00 57 1012.1
20170921044139 53 62 5.0 8.0 0.00 0.00 0.00 58 1012.1
20170921043639 53 58 5.0 8.0 0.00 0.00 0.00 58 1012.0
20170921043141 53 5 4.0 7.0 0.00 0.00 0.00 60 1012.0
20170921042638 53 41 2.0 7.0 0.00 0.00 0.00 59 1012.0
20170921042139 54 59 5.0 8.0 0.00 0.00 0.00 59 1012.4
20170921041639 55 34 6.0 8.0 0.00 0.00 0.00 58 1012.3
20170921041139 55 34 5.0 8.0 0.00 0.00 0.00 60 1012.3
20170921040639 55 58 4.0 8.0 0.00 0.00 0.00 60 1012.2
20170921040139 55 57 5.0 9.0 0.00 0.00 0.00 61 1012.3
20170921035638 55 53 4.0 9.0 0.00 0.00 0.00 62 1012.2
20170921035139 54 20 4.0 7.0 0.00 0.00 0.00 65 1012.2
20170921034637 54 56 5.0 5.0 0.00 0.00 0.00 68 1012.2
20170921034138 54 53 4.0 5.0 0.00 0.00 0.00 71 1012.2
20170921033637 54 72 3.0 5.0 0.00 0.00 0.00 72 1012.2
20170921033137 54 47 3.0 5.0 0.00 0.00 0.00 73 1012.1
20170921032637 54 51 4.0 5.0 0.00 0.00 0.00 74 1012.1
20170921032137 54 68 1.0 6.0 0.00 0.00 0.00 74 1012.0
20170921031637 55 69 2.0 6.0 0.00 0.00 0.00 75 1012.0
20170921030647 55 50 2.0 6.0 0.00 0.00 0.00 74 1012.0
20170921030149 55 39 4.0 5.0 0.00 0.00 0.00 74 1011.9
20170921025647 55 39 4.0 5.0 0.00 0.00 0.00 77 1011.3
20170921025146 56 28 4.0 5.0 0.00 0.00 0.00 79 1011.4
20170921024648 56 49 4.0 5.0 0.00 0.00 0.00 79 1011.4
20170921024146 56 54 4.0 4.0 0.00 0.00 0.00 80 1011.4
20170921023646 57 41 3.0 3.0 0.00 0.00 0.00 80 1011.5
20170921023147 57 37 2.0 3.0 0.00 0.00 0.00 80 1011.4
20170921022646 58 41 2.0 3.0 0.00 0.00 0.00 79 1011.5
20170921022146 58 46 3.0 3.0 0.00 0.00 0.00 78 1011.5
20170921021646 59 36 1.0 3.0 0.00 0.00 0.00 78 1011.4
20170921021145 60 46 2.0 3.0 0.00 0.00 0.00 77 1011.6
20170921020647 61 58 1.0 3.0 0.00 0.00 0.00 76 1011.6
20170921020146 61 143 0.0 1.0 0.00 0.00 0.00 77 1011.6
20170921015645 62 143 0.0 1.0 0.00 0.00 0.00 76 1010.9
20170921015147 62 222 0.0 1.0 0.00 0.00 0.00 75 1010.9
20170921014645 63 222 0.0 2.0 0.00 0.00 0.00 74 1011.0
20170921014145 63 222 1.0 2.0 0.00 0.00 0.00 73 1011.1
20170921013644 64 257 2.0 4.0 0.00 0.00 0.00 73 1011.4
20170921013145 64 226 0.0 4.0 0.00 0.00 0.00 72 1011.3
20170921012645 65 193 0.0 4.0 0.00 0.00 0.00 71 1011.3
20170921012144 65 269 3.0 4.0 0.00 0.00 0.00 70 1011.4
20170921011644 66 245 2.0 5.0 0.00 0.00 0.00 69 1011.6
20170921011147 66 239 4.0 5.0 0.00 0.00 0.00 69 1011.7
20170921010643 66 186 1.0 7.0 0.00 0.00 0.00 69 1011.7
20170921010144 66 225 4.0 7.0 0.00 0.00 0.00 68 1011.8
20170921005643 67 247 4.0 8.0 0.00 0.00 0.00 68 1011.6
20170921005144 67 257 3.0 8.0 0.00 0.00 0.00 67 1011.6
20170921004645 67 215 2.0 9.0 0.00 0.00 0.00 66 1011.6
20170921004144 67 225 7.0 11.0 0.00 0.00 0.00 66 1011.6
20170921003644 68 229 2.0 11.0 0.00 0.00 0.00 65 1011.8
20170921003143 68 217 5.0 10.0 0.00 0.00 0.00 64 1011.7
20170921002642 68 193 4.0 8.0 0.00 0.00 0.00 63 1011.7
20170921002143 68 239 2.0 8.0 0.00 0.00 0.00 63 1011.7
20170921001642 68 195 4.0 8.0 0.00 0.00 0.00 63 1011.7
20170921001142 68 196 3.0 8.0 0.00 0.00 0.00 63 1011.8
20170921000643 68 263 3.0 9.0 0.00 0.00 0.00 62 1011.8
20170921000142 69 261 2.0 9.0 0.00 0.00 0.00 61 1011.8
20170920235642 70 255 4.0 9.0 0.00 0.00 0.00 59 1012.0
20170920235141 69 222 5.0 9.0 0.00 0.00 0.00 59 1011.8
20170920234641 70 242 7.0 9.0 0.00 0.00 0.00 58 1012.0
20170920234141 70 225 7.0 8.0 0.00 0.00 0.00 58 1011.9
20170920233641 70 253 4.0 8.0 0.00 0.00 0.00 57 1011.9
20170920233141 70 315 4.0 11.0 0.00 0.00 0.00 57 1011.9
20170920232641 70 226 8.0 11.0 0.00 0.00 0.00 58 1012.0
20170920232141 70 281 4.0 10.0 0.00 0.00 0.00 58 1012.0
20170920231642 70 196 3.0 10.0 0.00 0.00 0.00 57 1012.0
20170920230653 70 214 4.0 9.0 0.00 0.00 0.00 57 1012.0
20170920230152 71 261 3.0 9.0 0.00 0.00 0.00 57 1012.1
20170920225652 70 266 3.0 9.0 0.00 0.00 0.00 58 1012.1
20170920225152 71 245 4.0 9.0 0.00 0.00 0.00 56 1012.2
20170920224652 71 255 0.0 11.0 0.00 0.00 0.00 57 1012.2
20170920224152 71 279 6.0 11.0 0.00 0.00 0.00 56 1012.2
20170920223651 71 268 5.0 9.0 0.00 0.00 0.00 57 1012.2
20170920223151 70 162 2.0 11.0 0.00 0.00 0.00 57 1012.2
20170920222651 70 274 4.0 11.0 0.00 0.00 0.00 57 1012.3
20170920222151 70 217 3.0 13.0 0.00 0.00 0.00 59 1012.2
20170920221651 70 233 6.0 13.0 0.00 0.00 0.00 59 1012.4
20170920221151 70 289 6.0 11.0 0.00 0.00 0.00 58 1012.4
20170920220650 70 239 8.0 11.0 0.00 0.00 0.00 59 1012.5
20170920220150 70 246 9.0 10.0 0.00 0.00 0.00 59 1012.5
20170920215651 71 205 6.0 12.0 0.00 0.00 0.00 58 1012.8
20170920215150 70 221 8.0 12.0 0.00 0.00 0.00 60 1012.7
20170920214650 70 239 3.0 11.0 0.00 0.00 0.00 60 1012.7
20170920214150 70 210 7.0 12.0 0.00 0.00 0.00 61 1012.8
20170920213650 69 226 7.0 12.0 0.00 0.00 0.00 61 1012.7
20170920213149 70 264 6.0 10.0 0.00 0.00 0.00 60 1012.7
20170920212649 69 243 4.0 12.0 0.00 0.00 0.00 61 1012.9
20170920212150 70 233 6.0 12.0 0.00 0.00 0.00 60 1013.0
20170920211650 70 200 6.0 10.0 0.00 0.00 0.00 60 1012.9
20170920211151 70 261 6.0 9.0 0.00 0.00 0.00 60 1013.0
20170920210649 70 198 1.0 10.0 0.00 0.00 0.00 60 1013.1
20170920210149 70 311 4.0 10.0 0.00 0.00 0.00 61 1013.1
20170920205650 69 283 4.0 12.0 0.00 0.00 0.00 61 1012.9
20170920205148 69 226 8.0 13.0 0.00 0.00 0.00 61 1013.0
20170920204648 70 221 3.0 13.0 0.00 0.00 0.00 59 1013.3
20170920204148 70 264 5.0 11.0 0.00 0.00 0.00 59 1013.3
20170920203648 69 201 3.0 10.0 0.00 0.00 0.00 60 1013.1
20170920203149 69 187 4.0 10.0 0.00 0.00 0.00 61 1013.2
20170920202648 69 292 5.0 11.0 0.00 0.00 0.00 60 1013.1
20170920202147 69 264 6.0 12.0 0.00 0.00 0.00 61 1013.2
20170920201648 68 262 9.0 12.0 0.00 0.00 0.00 60 1013.2
20170920201147 69 263 2.0 13.0 0.00 0.00 0.00 60 1013.3
20170920200648 69 203 2.0 13.0 0.00 0.00 0.00 59 1013.3
20170920200147 69 226 3.0 11.0 0.00 0.00 0.00 59 1013.4
20170920195646 69 237 2.0 11.0 0.00 0.00 0.00 59 1013.5
20170920195146 69 211 4.0 10.0 0.00 0.00 0.00 59 1013.4
20170920194646 69 195 3.0 11.0 0.00 0.00 0.00 59 1013.4
20170920194148 69 246 5.0 11.0 0.00 0.00 0.00 60 1013.5
20170920193646 68 219 7.0 11.0 0.00 0.00 0.00 60 1013.3
20170920193146 69 241 8.0 11.0 0.00 0.00 0.00 58 1013.6
20170920192646 68 184 5.0 9.0 0.00 0.00 0.00 59 1013.4
20170920192146 69 227 4.0 9.0 0.00 0.00 0.00 57 1013.6
20170920191645 69 267 6.0 9.0 0.00 0.00 0.00 58 1013.6
20170920190656 68 221 5.0 12.0 0.00 0.00 0.00 60 1013.5
20170920190156 68 225 7.0 12.0 0.00 0.00 0.00 59 1013.6
20170920185655 67 295 4.0 11.0 0.00 0.00 0.00 60 1013.8
20170920185155 67 221 5.0 11.0 0.00 0.00 0.00 61 1013.8
20170920184657 67 275 2.0 13.0 0.00 0.00 0.00 61 1013.9
20170920184156 67 236 4.0 13.0 0.00 0.00 0.00 61 1013.9
20170920183656 67 252 3.0 10.0 0.00 0.00 0.00 58 1013.9
20170920183155 67 254 4.0 10.0 0.00 0.00 0.00 59 1013.9
20170920182655 67 293 3.0 7.0 0.00 0.00 0.00 60 1013.9
20170920182156 67 243 4.0 9.0 0.00 0.00 0.00 60 1013.9
20170920181655 66 304 4.0 9.0 0.00 0.00 0.00 60 1013.6
20170920181155 66 250 4.0 9.0 0.00 0.00 0.00 59 1013.6
20170920180656 66 296 2.0 9.0 0.00 0.00 0.00 59 1013.6
20170920180154 66 269 2.0 9.0 0.00 0.00 0.00 60 1013.8
20170920175654 66 236 7.0 9.0 0.00 0.00 0.00 58 1013.8
20170920175155 65 202 2.0 11.0 0.00 0.00 0.00 58 1013.7
20170920174655 66 222 2.0 11.0 0.00 0.00 0.00 57 1013.8
20170920174154 66 245 8.0 11.0 0.00 0.00 0.00 56 1013.9
20170920173655 66 289 5.0 11.0 0.00 0.00 0.00 56 1013.9
20170920173154 66 211 6.0 9.0 0.00 0.00 0.00 58 1013.8
20170920172654 65 238 4.0 9.0 0.00 0.00 0.00 58 1013.8
20170920172154 65 302 4.0 9.0 0.00 0.00 0.00 57 1013.9
20170920171653 66 222 5.0 9.0 0.00 0.00 0.00 57 1013.9
20170920171156 66 238 3.0 9.0 0.00 0.00 0.00 55 1014.0
20170920170652 66 230 3.0 9.0 0.00 0.00 0.00 54 1014.0
20170920170153 66 277 4.0 9.0 0.00 0.00 0.00 55 1014.0
20170920165652 66 269 5.0 8.0 0.00 0.00 0.00 52 1014.2
20170920165152 66 301 7.0 8.0 0.00 0.00 0.00 50 1014.1
20170920164652 67 300 5.0 6.0 0.00 0.00 0.00 48 1014.1
20170920164152 66 272 2.0 7.0 0.00 0.00 0.00 46 1014.1
20170920163652 66 278 5.0 8.0 0.00 0.00 0.00 42 1014.1
20170920163152 65 271 3.0 9.0 0.00 0.00 0.00 41 1013.8
20170920162652 65 280 5.0 9.0 0.00 0.00 0.00 41 1013.9
20170920162153 65 277 6.0 7.0 0.00 0.00 0.00 43 1013.9
20170920161651 66 267 5.0 7.0 0.00 0.00 0.00 39 1014.1
20170920161151 66 233 3.0 7.0 0.00 0.00 0.00 41 1014.0
20170920160651 66 146 1.0 7.0 0.00 0.00 0.00 33 1013.9